This is the latest recevied weather packets stored in our database for station/object W4EDL-13. If no packets are shown the sender has not sent any weather packets the latest 10 day(s).
| Time | Temp. | Humidity | Pressure | Rain* | Wind** | Luminosity | Snow |
|---|---|---|---|---|---|---|---|
| 1778138487 | 19.44° C | 94% | 1005.6 hPa | - | - | - | - |
| 1778137894 | 19.44° C | 94% | 1005.6 hPa | - | - | - | - |
| 1778137887 | 19.44° C | 94% | 1005.6 hPa | - | - | - | - |
| 1778137293 | 19.44° C | 93% | 1005.6 hPa | - | - | - | - |
| 1778137286 | 19.44° C | 93% | 1005.6 hPa | - | - | - | - |
| 1778136686 | 20° C | 91% | 1005.9 hPa | - | - | - | - |
| 1778136085 | 19.44° C | 92% | 1005.9 hPa | - | - | - | - |
| 1778135484 | 20° C | 90% | 1005.9 hPa | - | - | - | - |
| 1778134884 | 20° C | 90% | 1006.3 hPa | - | - | - | - |
| 1778134284 | 20.56° C | 89% | 1006.3 hPa | - | - | - | - |
| 1778134283 | 20.56° C | 89% | 1006.3 hPa | - | - | - | - |
| 1778133683 | 20.56° C | 87% | 1006.3 hPa | - | - | - | - |
| 1778133083 | 21.11° C | 86% | 1006.6 hPa | - | - | - | - |
| 1778133082 | 21.11° C | 86% | 1006.6 hPa | - | - | - | - |
| 1778132483 | 21.11° C | 86% | 1006.6 hPa | - | - | - | - |
| 1778132482 | 21.11° C | 86% | 1006.6 hPa | - | - | - | - |
| 1778131881 | 21.11° C | 85% | 1006.6 hPa | - | - | - | - |
| 1778131280 | 21.67° C | 85% | 1006.6 hPa | - | - | - | - |
| 1778130679 | 21.67° C | 85% | 1007.3 hPa | - | - | - | - |
| 1778130079 | 21.67° C | 85% | 1007.3 hPa | - | - | - | - |
| 1778129478 | 22.22° C | 83% | 1007.3 hPa | - | - | - | - |
| 1778128878 | 22.78° C | 81% | 1007.3 hPa | - | - | - | - |
| 1778128277 | 23.89° C | 80% | 1006.3 hPa | - | - | - | - |
| 1778127676 | 24.44° C | 79% | 1006.3 hPa | - | - | - | - |
| 1778127076 | 24.44° C | 78% | 1006.3 hPa | - | - | - | - |
* Rain since midnight (hover to see other rain measurements)
** Current wind speed in m/s (hover to see current wind gust speed)